K6OUA-11 Weather Reports


time (UTC)temp
F
wind
direction
speed
knots
gust
knots
rain 1hr
in
rain 24hr
in
rain mn
in
humidity
%
barometer
mb
20260905171343 82 135 0.0 4.3 0.00 0.00 0.00 30
20260905171141 81 135 0.0 2.6 0.00 0.00 0.00 28
20260905170939 81 175 0.9 2.6 0.00 0.00 0.00 28
20260905170738 80 133 0.0 3.5 0.00 0.00 0.00 33
20260905170536 80 133 0.0 3.5 0.00 0.00 0.00 33
20260905170334 80 139 2.6 3.5 0.00 0.00 0.00 33
20260905170132 79 198 1.7 2.6 0.00 0.00 0.00 34
20260905165930 79 37 0.0 2.6 0.00 0.00 0.00 36
20260905165728 78 37 0.0 0.9 0.00 0.00 0.00 40
20260905165526 78 37 0.0 0.9 0.00 0.00 0.00 41
20260905165324 77 8 0.0 0.9 0.00 0.00 0.00 43
20260905165122 76 196 0.0 0.0 0.00 0.00 0.00 46
20260905164920 76 281 0.0 0.0 0.00 0.00 0.00 48
20260905164718 75 281 0.0 4.3 0.00 0.00 0.00 49
20260905164516 75 281 0.0 4.3 0.00 0.00 0.00 50
20260905164314 74 281 0.0 4.3 0.00 0.00 0.00 50
20260905164112 74 239 0.0 4.3 0.00 0.00 0.00 52
20260905163910 74 306 0.9 4.3 0.00 0.00 0.00 52
20260905163710 73 250 0.9 5.2 0.00 0.00 0.00 54
20260905163506 73 285 2.6 5.2 0.00 0.00 0.00 53
20260905163304 73 285 0.9 5.2 0.00 0.00 0.00 54
20260905163102 73 295 1.7 6.1 0.00 0.00 0.00 54
20260905162900 72 313 2.6 6.1 0.00 0.00 0.00 56
20260905162658 72 291 2.6 4.3 0.00 0.00 0.00 56
20260905162456 72 243 0.0 4.3 0.00 0.00 0.00 56
20260905162254 72 278 3.5 4.3 0.00 0.00 0.00 55
20260905162052 72 275 2.6 1.7 0.00 0.00 0.00 59
20260905161850 71 255 0.0 1.7 0.00 0.00 0.00 60
20260905161648 71 255 0.0 2.6 0.00 0.00 0.00 63
20260905161446 71 255 0.0 2.6 0.00 0.00 0.00 64
20260905161244 70 261 1.7 2.6 0.00 0.00 0.00 65
20260905161042 70 253 0.0 3.5 0.00 0.00 0.00 66
20260905160840 70 284 1.7 3.5 0.00 0.00 0.00 66
20260905160638 69 303 0.0 3.5 0.00 0.00 0.00 68
20260905160436 69 303 0.9 3.5 0.00 0.00 0.00 67
20260905160235 69 274 3.5 3.5 0.00 0.00 0.00 68
20260905160033 69 264 0.0 3.5 0.00 0.00 0.00 69
20260905155831 69 296 0.9 3.5 0.00 0.00 0.00 69
20260905155629 68 272 1.7 0.9 0.00 0.00 0.00 69
20260905155427 68 278 1.7 0.9 0.00 0.00 0.00 70
20260905155225 68 237 0.0 1.7 0.00 0.00 0.00 70
20260905155023 68 284 0.0 1.7 0.00 0.00 0.00 70
20260905154821 68 284 0.0 1.7 0.00 0.00 0.00 71
20260905154619 68 284 0.0 1.7 0.00 0.00 0.00 71
20260905154417 68 261 0.0 1.7 0.00 0.00 0.00 71
20260905153812 68 271 0.0 0.0 0.00 0.00 0.00 71
20260905153610 68 271 0.0 0.0 0.00 0.00 0.00 71
20260905153408 68 271 0.0 0.0 0.00 0.00 0.00 71
20260905153004 68 271 0.0 0.0 0.00 0.00 0.00 70
20260905152802 68 52 0.0 0.0 0.00 0.00 0.00 70
20260905152600 68 52 0.0 0.0 0.00 0.00 0.00 70
20260905152358 68 52 0.0 0.0 0.00 0.00 0.00 70
20260905152158 68 52 0.0 0.0 0.00 0.00 0.00 70
20260905151954 68 52 0.0 0.0 0.00 0.00 0.00 71
20260905151753 67 52 0.0 0.0 0.00 0.00 0.00 71
20260905151551 67 52 0.0 0.0 0.00 0.00 0.00 72
20260905151349 66 52 0.0 0.0 0.00 0.00 0.00 73
20260905151147 66 52 0.0 0.0 0.00 0.00 0.00 73
20260905150945 66 52 0.0 0.0 0.00 0.00 0.00 74
20260905150743 65 52 0.0 1.7 0.00 0.00 0.00 74
20260905150541 65 52 0.0 1.7 0.00 0.00 0.00 75
20260905150339 65 52 0.0 1.7 0.00 0.00 0.00 75
20260905150137 64 92 0.9 2.6 0.00 0.00 0.00 75
20260905145935 64 80 1.7 2.6 0.00 0.00 0.00 75
20260905145532 64 118 1.7 2.6 0.00 0.00 0.00 76
20260905145330 64 120 1.7 2.6 0.00 0.00 0.00 76
20260905145128 64 129 0.9 2.6 0.00 0.00 0.00 76
20260905144926 64 106 1.7 2.6 0.00 0.00 0.00 76
20260905144522 63 87 0.0 0.0 0.00 0.00 0.00 78
20260905144320 63 87 0.0 0.0 0.00 0.00 0.00 78
20260905144118 63 87 0.0 0.0 0.00 0.00 0.00 77
20260905143916 62 87 0.0 0.0 0.00 0.00 0.00 78
20260905143714 62 87 0.0 0.0 0.00 0.00 0.00 79
20260905143513 62 87 0.0 0.0 0.00 0.00 0.00 79
20260905143311 61 87 0.0 0.0 0.00 0.00 0.00 81
20260905143109 61 87 0.0 0.0 0.00 0.00 0.00 81
20260905142907 61 87 0.0 0.0 0.00 0.00 0.00 82
20260905142705 60 87 0.0 0.0 0.00 0.00 0.00 83
20260905142503 60 87 0.0 0.0 0.00 0.00 0.00 83
20260905142301 60 87 0.0 0.0 0.00 0.00 0.00 84
20260905142059 60 87 0.0 0.0 0.00 0.00 0.00 84
20260905141857 60 87 0.0 0.0 0.00 0.00 0.00 84
20260905141655 60 87 0.0 0.0 0.00 0.00 0.00 85
20260905141455 60 87 0.0 0.0 0.00 0.00 0.00 85
20260905141252 60 87 0.0 0.0 0.00 0.00 0.00 86
20260905141050 59 87 0.0 0.0 0.00 0.00 0.00 87
20260905140848 59 87 0.0 0.0 0.00 0.00 0.00 87
20260905140646 59 87 0.0 0.0 0.00 0.00 0.00 87
20260905140446 59 87 0.0 0.0 0.00 0.00 0.00 87
20260905140242 59 87 0.0 0.0 0.00 0.00 0.00 87
20260905140040 59 87 0.0 0.0 0.00 0.00 0.00 87
20260905135838 59 87 0.0 0.0 0.00 0.00 0.00 87
20260905135434 58 87 0.0 0.0 0.00 0.00 0.00 88
20260905135233 58 87 0.0 0.0 0.00 0.00 0.00 89
20260905135031 58 87 0.0 0.0 0.00 0.00 0.00 89
20260905134831 58 87 0.0 0.0 0.00 0.00 0.00 89
20260905134627 58 87 0.0 0.0 0.00 0.00 0.00 89
20260905134425 58 87 0.0 0.0 0.00 0.00 0.00 89
20260905134223 58 87 0.0 0.0 0.00 0.00 0.00 88
20260905134021 58 87 0.0 0.0 0.00 0.00 0.00 88
20260905133617 58 87 0.0 0.0 0.00 0.00 0.00 90
20260905133415 58 87 0.0 0.0 0.00 0.00 0.00 90
20260905133214 59 87 0.0 0.0 0.00 0.00 0.00 90
20260905133014 58 87 0.0 0.0 0.00 0.00 0.00 90
20260905132810 59 87 0.0 0.0 0.00 0.00 0.00 90
20260905132609 58 87 0.0 0.0 0.00 0.00 0.00 91
20260905132406 58 87 0.0 0.0 0.00 0.00 0.00 91
20260905132204 59 87 0.0 0.0 0.00 0.00 0.00 91
20260905132004 58 87 0.0 0.0 0.00 0.00 0.00 91
20260905131800 58 87 0.0 0.0 0.00 0.00 0.00 91
20260905131558 58 87 0.0 0.0 0.00 0.00 0.00 91
20260905131356 58 87 0.0 0.0 0.00 0.00 0.00 91
20260905131154 58 87 0.0 0.0 0.00 0.00 0.00 91
20260905130953 58 87 0.0 0.0 0.00 0.00 0.00 91
20260905130751 59 87 0.0 0.0 0.00 0.00 0.00 91
20260905130549 58 87 0.0 0.0 0.00 0.00 0.00 91
20260905130347 59 87 0.0 0.0 0.00 0.00 0.00 91
20260905130145 59 87 0.0 0.0 0.00 0.00 0.00 91
20260905125943 59 87 0.0 0.0 0.00 0.00 0.00 91
20260905125741 59 87 0.0 0.0 0.00 0.00 0.00 91
20260905125539 59 87 0.0 0.0 0.00 0.00 0.00 91
20260905125337 59 87 0.0 0.0 0.00 0.00 0.00 91
20260905124940 59 87 0.0 0.0 0.00 0.00 0.00 91
20260905124933 59 87 0.0 0.0 0.00 0.00 0.00 91
20260905124732 59 87 0.0 0.0 0.00 0.00 0.00 91
20260905124530 59 87 0.0 0.0 0.00 0.00 0.00 91
20260905124126 59 87 0.0 0.0 0.00 0.00 0.00 91
20260905123924 59 87 0.0 0.0 0.00 0.00 0.00 91
20260905123722 59 87 0.0 0.0 0.00 0.00 0.00 91
20260905123520 59 87 0.0 0.0 0.00 0.00 0.00 91
20260905123318 59 87 0.0 0.0 0.00 0.00 0.00 91
20260905123116 59 87 0.0 0.0 0.00 0.00 0.00 91
20260905122915 59 87 0.0 0.0 0.00 0.00 0.00 91
20260905122713 59 87 0.0 0.0 0.00 0.00 0.00 91
20260905122511 59 87 0.0 0.0 0.00 0.00 0.00 91
20260905122309 59 87 0.0 0.0 0.00 0.00 0.00 91
20260905122107 59 87 0.0 0.0 0.00 0.00 0.00 91
20260905121905 59 87 0.0 0.0 0.00 0.00 0.00 91
20260905121503 59 87 0.0 0.0 0.00 0.00 0.00 91
20260905121259 59 87 0.0 0.0 0.00 0.00 0.00 91
20260905121057 59 87 0.0 0.0 0.00 0.00 0.00 91
20260905120855 59 87 0.0 0.0 0.00 0.00 0.00 91
20260905120653 59 87 0.0 0.0 0.00 0.00 0.00 91
20260905120454 59 87 0.0 0.0 0.00 0.00 0.00 91
20260905120250 59 87 0.0 0.0 0.00 0.00 0.00 91
20260905120048 59 87 0.0 0.0 0.00 0.00 0.00 91
20260905115846 59 87 0.0 0.0 0.00 0.00 0.00 91
20260905115644 59 87 0.0 0.0 0.00 0.00 0.00 91
20260905115442 59 87 0.0 0.0 0.00 0.00 0.00 91
20260905115240 59 87 0.0 0.0 0.00 0.00 0.00 91
20260905114836 59 87 0.0 0.0 0.00 0.00 0.00 91
20260905114634 59 87 0.0 0.0 0.00 0.00 0.00 91
20260905114433 59 87 0.0 0.0 0.00 0.00 0.00 91
20260905114231 59 87 0.0 0.0 0.00 0.00 0.00 91
20260905114029 59 87 0.0 0.0 0.00 0.00 0.00 91
20260905113827 59 87 0.0 0.0 0.00 0.00 0.00 91
20260905113625 59 87 0.0 0.0 0.00 0.00 0.00 91
20260905113424 59 87 0.0 0.0 0.00 0.00 0.00 91
20260905113221 59 87 0.0 0.0 0.00 0.00 0.00 91
20260905112817 59 87 0.0 0.0 0.00 0.00 0.00 91
20260905112618 59 87 0.0 0.0 0.00 0.00 0.00 91
20260905112413 59 87 0.0 0.0 0.00 0.00 0.00 91
20260905112212 59 87 0.0 0.0 0.00 0.00 0.00 91
20260905112010 59 87 0.0 0.0 0.00 0.00 0.00 91
20260905111808 59 87 0.0 0.0 0.00 0.00 0.00 91
20260905111606 59 87 0.0 0.0 0.00 0.00 0.00 91
20260905111404 59 87 0.0 0.0 0.00 0.00 0.00 91
20260905111202 59 87 0.0 0.0 0.00 0.00 0.00 91
20260905111000 59 87 0.0 0.0 0.00 0.00 0.00 91
20260905110758 59 87 0.0 0.0 0.00 0.00 0.00 91
20260905110556 59 87 0.0 0.0 0.00 0.00 0.00 91
20260905110354 59 87 0.0 0.0 0.00 0.00 0.00 91
20260905110152 59 87 0.0 0.0 0.00 0.00 0.00 91
20260905105951 59 87 0.0 0.0 0.00 0.00 0.00 91
20260905105749 59 87 0.0 0.0 0.00 0.00 0.00 91
20260905105547 59 87 0.0 0.0 0.00 0.00 0.00 91
20260905105345 59 87 0.0 0.0 0.00 0.00 0.00 91
20260905105145 59 87 0.0 0.0 0.00 0.00 0.00 91
20260905104941 60 87 0.0 0.0 0.00 0.00 0.00 91
20260905104739 60 87 0.0 0.0 0.00 0.00 0.00 91
20260905104539 60 87 0.0 0.0 0.00 0.00 0.00 91
20260905104335 60 87 0.0 0.0 0.00 0.00 0.00 91
20260905104133 60 87 0.0 0.0 0.00 0.00 0.00 91
20260905103932 60 87 0.0 0.0 0.00 0.00 0.00 91
20260905103730 60 87 0.0 0.0 0.00 0.00 0.00 91
20260905103528 60 87 0.0 0.0 0.00 0.00 0.00 91
20260905103326 60 87 0.0 0.0 0.00 0.00 0.00 91
20260905103124 60 87 0.0 0.0 0.00 0.00 0.00 91
20260905102922 60 87 0.0 0.0 0.00 0.00 0.00 91
20260905102720 60 87 0.0 0.0 0.00 0.00 0.00 91
20260905102518 60 87 0.0 0.0 0.00 0.00 0.00 91
20260905102316 60 87 0.0 0.0 0.00 0.00 0.00 91
20260905102114 60 87 0.0 0.0 0.00 0.00 0.00 91
20260905101912 60 87 0.0 0.0 0.00 0.00 0.00 91
20260905101711 60 87 0.0 0.0 0.00 0.00 0.00 91
20260905101509 60 87 0.0 0.0 0.00 0.00 0.00 92
20260905101307 60 87 0.0 0.0 0.00 0.00 0.00 92
20260905101105 60 87 0.0 0.0 0.00 0.00 0.00 92
20260905100903 60 87 0.0 0.0 0.00 0.00 0.00 92
20260905100701 60 87 0.0 0.0 0.00 0.00 0.00 92
20260905100459 60 87 0.0 0.0 0.00 0.00 0.00 92
20260905100257 60 87 0.0 0.0 0.00 0.00 0.00 91
20260905100055 60 87 0.0 0.0 0.00 0.00 0.00 92
20260905095853 60 87 0.0 0.0 0.00 0.00 0.00 92
20260905095651 60 87 0.0 0.0 0.00 0.00 0.00 92
20260905095450 60 87 0.0 0.0 0.00 0.00 0.00 92
20260905095248 60 87 0.0 0.0 0.00 0.00 0.00 92
20260905095046 60 87 0.0 0.0 0.00 0.00 0.00 92
20260905094844 60 87 0.0 0.0 0.00 0.00 0.00 92
20260905094642 60 87 0.0 0.0 0.00 0.00 0.00 92
20260905094440 60 87 0.0 0.0 0.00 0.00 0.00 92
20260905094238 60 87 0.0 0.0 0.00 0.00 0.00 92
20260905094036 60 87 0.0 0.0 0.00 0.00 0.00 92
20260905093834 60 87 0.0 0.0 0.00 0.00 0.00 92
20260905093632 60 87 0.0 0.9 0.00 0.00 0.00 92
20260905093431 60 87 0.0 0.9 0.00 0.00 0.00 91
20260905093229 60 87 0.0 2.6 0.00 0.00 0.00 91
20260905093027 60 87 0.0 2.6 0.00 0.00 0.00 91
20260905092825 60 67 0.0 2.6 0.00 0.00 0.00 92
20260905092623 59 82 0.0 1.7 0.00 0.00 0.00 92
20260905092421 59 82 0.0 1.7 0.00 0.00 0.00 92
20260905092219 59 95 0.9 2.6 0.00 0.00 0.00 91
20260905092017 59 80 0.0 2.6 0.00 0.00 0.00 91
20260905091815 59 80 0.0 2.6 0.00 0.00 0.00 90
20260905091613 60 80 0.0 0.0 0.00 0.00 0.00 90
20260905091248 60 59 0.0 0.0 0.00 0.00 0.00 90
20260905091210 60 59 0.0 0.0 0.00 0.00 0.00 90
20260905091008 61 59 0.0 0.0 0.00 0.00 0.00 90
20260905090806 61 59 0.0 0.0 0.00 0.00 0.00 91
20260905090604 61 59 0.0 0.0 0.00 0.00 0.00 91
20260905090402 61 59 0.0 0.0 0.00 0.00 0.00 91
20260905090200 61 59 0.0 0.0 0.00 0.00 0.00 91
20260905085958 61 59 0.0 0.0 0.00 0.00 0.00 91
20260905085756 61 59 0.0 0.0 0.00 0.00 0.00 91
20260905085554 61 59 0.0 0.0 0.00 0.00 0.00 91
20260905085353 61 59 0.0 0.0 0.00 0.00 0.00 91
20260905085151 61 59 0.0 0.0 0.00 0.00 0.00 91
20260905084949 60 59 0.0 0.0 0.00 0.00 0.00 91
20260905084747 60 59 0.0 0.0 0.00 0.00 0.00 91
20260905084343 60 59 0.0 0.0 0.00 0.00 0.00 91
20260905084141 60 59 0.0 0.0 0.00 0.00 0.00 90
20260905083939 60 59 0.0 0.0 0.00 0.00 0.00 90
20260905083737 60 59 0.0 1.7 0.00 0.00 0.00 90
20260905083536 60 59 0.0 1.7 0.00 0.00 0.00 90
20260905083333 60 59 0.0 1.7 0.00 0.00 0.00 90
20260905083132 60 109 0.9 0.0 0.00 0.00 0.00 89
20260905082728 61 71 0.0 0.0 0.00 0.00 0.00 90
20260905082324 61 71 0.0 0.0 0.00 0.00 0.00 90
20260905082122 60 71 0.0 0.9 0.00 0.00 0.00 90
20260905081920 60 71 0.0 0.9 0.00 0.00 0.00 90
20260905081718 60 71 0.0 0.9 0.00 0.00 0.00 89
20260905081516 61 78 0.0 0.9 0.00 0.00 0.00 89
20260905081314 61 109 0.9 0.9 0.00 0.00 0.00 89
20260905081113 61 88 0.0 0.0 0.00 0.00 0.00 89
20260905080911 61 267 0.0 0.0 0.00 0.00 0.00 89
20260905080709 61 267 0.0 0.0 0.00 0.00 0.00 89
20260905080344 61 267 0.0 0.0 0.00 0.00 0.00 89
20260905080305 61 267 0.0 0.0 0.00 0.00 0.00 89
20260905075901 61 267 0.0 0.0 0.00 0.00 0.00 89
20260905075659 61 267 0.0 0.0 0.00 0.00 0.00 89
20260905075457 61 267 0.0 0.0 0.00 0.00 0.00 89
20260905075255 61 267 0.0 0.0 0.00 0.00 0.00 89
20260905075056 61 267 0.0 0.0 0.00 0.00 0.00 89
20260905074852 61 267 0.0 0.0 0.00 0.00 0.00 89
20260905074651 61 267 0.0 0.0 0.00 0.00 0.00 89
20260905074448 61 267 0.0 0.0 0.00 0.00 0.00 88
20260905074248 61 267 0.0 0.0 0.00 0.00 0.00 88
20260905074044 61 267 0.0 0.0 0.00 0.00 0.00 88
20260905073642 61 267 0.0 0.0 0.00 0.00 0.00 88
20260905073440 61 267 0.0 0.0 0.00 0.00 0.00 88
20260905073236 61 267 0.0 0.0 0.00 0.00 0.00 88
20260905073035 61 267 0.0 0.0 0.00 0.00 0.00 88
20260905072833 61 267 0.0 0.0 0.00 0.00 0.00 88
20260905072631 61 267 0.0 0.0 0.00 0.00 0.00 88
20260905072429 61 267 0.0 0.0 0.00 0.00 0.00 88
20260905072227 61 267 0.0 0.0 0.00 0.00 0.00 88
20260905072025 61 267 0.0 0.0 0.00 0.00 0.00 88
20260905071823 61 267 0.0 0.0 0.00 0.00 0.00 88
20260905071621 62 267 0.0 0.0 0.00 0.00 0.00 88
20260905071217 62 267 0.0 0.0 0.00 0.00 0.00 87
20260905071015 62 267 0.0 0.0 0.00 0.00 0.00 87
20260905070814 61 267 0.0 0.0 0.00 0.00 0.00 87
20260905070612 62 267 0.0 0.0 0.00 0.00 0.00 87
20260905070410 62 267 0.0 0.0 0.00 0.00 0.00 87
20260905070242 62 267 0.0 0.0 0.00 0.00 0.00 87
20260905070210 62 267 0.0 0.0 0.00 0.00 0.00 87
20260905065804 62 267 0.0 0.0 0.00 0.00 0.00 87
20260905065602 62 267 0.0 0.0 0.00 0.00 0.00 87
20260905065400 62 267 0.0 0.0 0.00 0.00 0.00 87
20260905065158 62 267 0.0 0.0 0.00 0.00 0.00 87
20260905064755 62 267 0.0 0.0 0.00 0.00 0.00 87
20260905064553 62 267 0.0 0.0 0.00 0.00 0.00 86
20260905064351 62 267 0.0 0.0 0.00 0.00 0.00 86
20260905064151 62 267 0.0 0.0 0.00 0.00 0.00 86
20260905063947 62 267 0.0 0.0 0.00 0.00 0.00 86
20260905063745 63 267 0.0 0.0 0.00 0.00 0.00 86
20260905063543 63 267 0.0 0.0 0.00 0.00 0.00 86
20260905063341 63 267 0.0 0.0 0.00 0.00 0.00 86
20260905063141 63 267 0.0 0.0 0.00 0.00 0.00 86
20260905062937 63 267 0.0 0.0 0.00 0.00 0.00 86
20260905062735 63 267 0.0 0.0 0.00 0.00 0.00 86
20260905062536 63 267 0.0 0.0 0.00 0.00 0.00 86
20260905062333 63 267 0.0 0.0 0.00 0.00 0.00 86
20260905062130 63 267 0.0 0.0 0.00 0.00 0.00 86
20260905061928 63 267 0.0 0.0 0.00 0.00 0.00 85
20260905061726 63 267 0.0 0.0 0.00 0.00 0.00 85
20260905061525 63 267 0.0 0.0 0.00 0.00 0.00 85
20260905061323 63 267 0.0 0.0 0.00 0.00 0.00 85
20260905061120 63 267 0.0 0.0 0.00 0.00 0.00 85
20260905060918 63 267 0.0 0.0 0.00 0.00 0.00 85
20260905060716 63 267 0.0 0.0 0.00 0.00 0.00 85
20260905060516 64 267 0.0 0.0 0.00 0.00 0.00 85
20260905060111 64 267 0.0 0.0 0.00 0.00 0.00 85
20260905055909 64 267 0.0 0.0 0.00 0.00 0.00 85
20260905055505 64 267 0.0 0.0 0.00 0.00 0.00 85
20260905055306 64 267 0.0 0.0 0.00 0.00 0.00 85
20260905054901 64 267 0.0 0.0 0.00 0.00 0.00 85
20260905054657 64 267 0.0 0.0 0.00 0.00 0.00 85
20260905054457 64 267 0.0 0.0 0.00 0.00 0.00 85
20260905054253 64 267 0.0 0.0 0.00 0.00 0.00 85
20260905054052 64 267 0.0 0.0 0.00 0.00 0.00 85
20260905053850 64 267 0.0 0.0 0.00 0.00 0.00 85
20260905053244 64 267 0.0 0.0 0.00 0.00 0.00 85
20260905053042 65 267 0.0 0.0 0.00 0.00 0.00 85
20260905052840 65 267 0.0 0.0 0.00 0.00 0.00 85
20260905052638 65 267 0.0 0.0 0.00 0.00 0.00 85
20260905052436 65 267 0.0 0.0 0.00 0.00 0.00 84
20260905052234 65 267 0.0 0.0 0.00 0.00 0.00 84
20260905052034 65 267 0.0 0.0 0.00 0.00 0.00 84
20260905051831 65 267 0.0 0.0 0.00 0.00 0.00 84
20260905051630 65 267 0.0 0.0 0.00 0.00 0.00 84
20260905051429 65 267 0.0 0.0 0.00 0.00 0.00 83
20260905051228 65 267 0.0 0.0 0.00 0.00 0.00 83
20260905051023 65 267 0.0 0.0 0.00 0.00 0.00 83
20260905050821 65 267 0.0 0.0 0.00 0.00 0.00 83
20260905050619 65 267 0.0 0.0 0.00 0.00 0.00 83
20260905050417 65 267 0.0 0.0 0.00 0.00 0.00 83
20260905050215 65 267 0.0 0.0 0.00 0.00 0.00 82
20260905050014 65 267 0.0 0.0 0.00 0.00 0.00 82
20260905045610 66 267 0.0 0.0 0.00 0.00 0.00 82
20260905045408 66 267 0.0 0.0 0.00 0.00 0.00 82
20260905045206 66 267 0.0 0.0 0.00 0.00 0.00 82
20260905044600 66 267 0.0 0.0 0.00 0.00 0.00 82
20260905044358 66 267 0.0 0.0 0.00 0.00 0.00 82
20260905044156 66 267 0.0 0.0 0.00 0.00 0.00 82
20260905043954 66 267 0.0 0.0 0.00 0.00 0.00 82
20260905043752 66 267 0.0 0.0 0.00 0.00 0.00 82
20260905043551 66 267 0.0 0.0 0.00 0.00 0.00 82
20260905043349 66 267 0.0 0.0 0.00 0.00 0.00 82
20260905043147 67 267 0.0 0.0 0.00 0.00 0.00 82
20260905042945 66 267 0.0 0.0 0.00 0.00 0.00 82
20260905042743 67 267 0.0 0.0 0.00 0.00 0.00 82
20260905042541 67 267 0.0 0.0 0.00 0.00 0.00 82
20260905042339 67 267 0.0 0.0 0.00 0.00 0.00 82
20260905041935 67 267 0.0 0.0 0.00 0.00 0.00 82
20260905041733 67 267 0.0 0.0 0.00 0.00 0.00 81
20260905041330 67 267 0.0 0.0 0.00 0.00 0.00 81
20260905041129 67 267 0.0 0.0 0.00 0.00 0.00 82
20260905040926 67 267 0.0 0.0 0.00 0.00 0.00 82
20260905040725 67 267 0.0 0.0 0.00 0.00 0.00 82
20260905040522 67 267 0.0 0.0 0.00 0.00 0.00 81
20260905040118 68 267 0.0 0.0 0.00 0.00 0.00 81
20260905035916 68 267 0.0 0.0 0.00 0.00 0.00 81
20260905035714 68 267 0.0 0.0 0.00 0.00 0.00 81
20260905035512 68 267 0.0 0.0 0.00 0.00 0.00 81
20260905035311 68 267 0.0 0.0 0.00 0.00 0.00 81
20260905035109 68 267 0.0 0.0 0.00 0.00 0.00 80
20260905034907 68 267 0.0 0.0 0.00 0.00 0.00 80
20260905034705 68 267 0.0 1.7 0.00 0.00 0.00 80
20260905034505 68 267 0.0 1.7 0.00 0.00 0.00 80
20260905034306 68 267 0.0 1.7 0.00 0.00 0.00 80
20260905034301 68 267 0.0 1.7 0.00 0.00 0.00 80
20260905034059 68 267 0.0 1.7 0.00 0.00 0.00 80
20260905033857 68 279 0.9 1.7 0.00 0.00 0.00 80
20260905033655 68 282 0.9 0.9 0.00 0.00 0.00 80
20260905033453 68 260 0.0 0.9 0.00 0.00 0.00 79
20260905033252 68 260 0.0 0.9 0.00 0.00 0.00 79
20260905033050 68 275 0.0 2.6 0.00 0.00 0.00 79
20260905032848 68 275 0.0 2.6 0.00 0.00 0.00 79
20260905032444 68 275 0.0 2.6 0.00 0.00 0.00 79
20260905032242 68 299 0.9 2.6 0.00 0.00 0.00 79
20260905032040 68 292 2.6 2.6 0.00 0.00 0.00 79
20260905031838 69 300 1.7 2.6 0.00 0.00 0.00 78
20260905031636 69 305 1.7 4.3 0.00 0.00 0.00 78
20260905031434 69 289 0.9 4.3 0.00 0.00 0.00 78
20260905031232 69 284 1.7 5.2 0.00 0.00 0.00 78
20260905031031 69 279 2.6 5.2 0.00 0.00 0.00 78
20260905030949 69 281 1.7 5.2 0.00 0.00 0.00 77
20260905030829 69 281 1.7 5.2 0.00 0.00 0.00 77
20260905030627 69 295 2.6 4.3 0.00 0.00 0.00 77
20260905030425 69 295 3.5 4.3 0.00 0.00 0.00 77
20260905030223 69 302 1.7 4.3 0.00 0.00 0.00 77
20260905030021 69 274 3.5 4.3 0.00 0.00 0.00 76
20260905025819 69 288 2.6 4.3 0.00 0.00 0.00 76
20260905025740 69 292 3.5 5.2 0.00 0.00 0.00 75
20260905025617 69 288 2.6 5.2 0.00 0.00 0.00 76
20260905025415 69 292 3.5 5.2 0.00 0.00 0.00 75
20260905025213 69 289 3.5 3.5 0.00 0.00 0.00 75
20260905025011 69 281 2.6 3.5 0.00 0.00 0.00 75
20260905024809 70 289 3.5 3.5 0.00 0.00 0.00 74
20260905024607 70 286 1.7 4.3 0.00 0.00 0.00 74
20260905024405 70 286 3.5 4.3 0.00 0.00 0.00 73
20260905024203 70 295 2.6 4.3 0.00 0.00 0.00 73
20260905023759 70 281 1.7 4.3 0.00 0.00 0.00 72
20260905023557 70 279 1.7 2.6 0.00 0.00 0.00 71
20260905023356 71 278 1.7 2.6 0.00 0.00 0.00 70
20260905023154 71 279 0.0 6.1 0.00 0.00 0.00 70
20260905022952 71 240 0.9 6.1 0.00 0.00 0.00 70
20260905022548 71 272 0.9 7.0 0.00 0.00 0.00 69
20260905022345 71 271 3.5 7.0 0.00 0.00 0.00 69
20260905022143 71 291 1.7 6.1 0.00 0.00 0.00 69
20260905021941 71 271 4.3 6.1 0.00 0.00 0.00 69
20260905021740 71 260 5.2 6.1 0.00 0.00 0.00 68
20260905021538 72 260 2.6 6.1 0.00 0.00 0.00 67
20260905021336 72 286 1.7 6.1 0.00 0.00 0.00 67
20260905021134 72 264 5.2 6.1 0.00 0.00 0.00 67
20260905020932 72 282 3.5 6.1 0.00 0.00 0.00 67
20260905020530 72 295 3.5 7.0 0.00 0.00 0.00 66
20260905020125 72 291 2.6 8.7 0.00 0.00 0.00 65
20260905015923 72 281 4.3 8.7 0.00 0.00 0.00 65
20260905015720 73 258 8.7 7.8 0.00 0.00 0.00 65
20260905015519 73 274 7.0 7.8 0.00 0.00 0.00 65
20260905015316 73 272 6.1 7.8 0.00 0.00 0.00 64
20260905015114 73 262 3.5 8.7 0.00 0.00 0.00 65
20260905014912 73 291 4.3 8.7 0.00 0.00 0.00 65
20260905014710 73 270 4.3 8.7 0.00 0.00 0.00 65
20260905014306 74 265 7.0 8.7 0.00 0.00 0.00 63
20260905014106 74 281 4.3 7.0 0.00 0.00 0.00 63
20260905013904 74 275 6.1 7.0 0.00 0.00 0.00 63
20260905013500 74 281 5.2 9.6 0.00 0.00 0.00 63
20260905013258 74 254 5.2 9.6 0.00 0.00 0.00 62
20260905013056 74 279 9.6 8.7 0.00 0.00 0.00 62
20260905012854 74 258 4.3 8.7 0.00 0.00 0.00 62
20260905012651 74 254 5.2 8.7 0.00 0.00 0.00 62
20260905012451 74 267 7.8 8.7 0.00 0.00 0.00 62
20260905011843 75 268 5.2 7.8 0.00 0.00 0.00 62
20260905011641 75 248 2.6 9.6 0.00 0.00 0.00 62
20260905011035 75 275 6.1 9.6 0.00 0.00 0.00 62
20260905010835 75 216 0.9 9.6 0.00 0.00 0.00 63
20260905010631 75 267 4.3 9.6 0.00 0.00 0.00 63
20260905010429 75 226 4.3 9.6 0.00 0.00 0.00 63
20260905010025 75 250 5.2 8.7 0.00 0.00 0.00 62
20260905005823 75 264 3.5 8.7 0.00 0.00 0.00 62
20260905005623 75 240 3.5 9.6 0.00 0.00 0.00 62
20260905005217 75 272 7.0 9.6 0.00 0.00 0.00 62
20260905005015 75 281 3.5 9.6 0.00 0.00 0.00 62
20260905004813 75 277 2.6 9.6 0.00 0.00 0.00 62
20260905004613 75 274 6.1 12.2 0.00 0.00 0.00 62
20260905004409 75 250 4.3 12.2 0.00 0.00 0.00 62
20260905004207 76 265 8.7 7.0 0.00 0.00 0.00 61
20260905003805 76 292 7.0 7.0 0.00 0.00 0.00 60
20260905003601 76 189 0.9 9.6 0.00 0.00 0.00 60
20260905003401 76 253 2.6 9.6 0.00 0.00 0.00 60
20260905003158 76 284 4.3 13.0 0.00 0.00 0.00 61
20260905002956 76 244 0.9 13.0 0.00 0.00 0.00 60
20260905002754 76 226 2.6 13.0 0.00 0.00 0.00 60
20260905002553 76 255 6.1 10.4 0.00 0.00 0.00 61
20260905002350 76 264 7.0 10.4 0.00 0.00 0.00 60
20260905002148 76 247 6.1 11.3 0.00 0.00 0.00 60
20260905001948 76 268 5.2 11.3 0.00 0.00 0.00 60
20260905001744 76 247 5.2 12.2 0.00 0.00 0.00 60
20260905001542 76 296 3.5 12.2 0.00 0.00 0.00 61
20260905001342 76 246 6.1 12.2 0.00 0.00 0.00 61
20260905001138 76 270 7.0 11.3 0.00 0.00 0.00 60
20260905000937 76 255 5.2 11.3 0.00 0.00 0.00 60
20260905000735 76 270 9.6 12.2 0.00 0.00 0.00 59
20260905000533 77 271 3.5 12.2 0.00 0.00 0.00 58
20260905000332 77 254 4.3 12.2 0.00 0.00 0.00 59
20260905000128 77 244 7.8 12.2 0.00 0.00 0.00 58
20260904235927 77 272 6.1 12.2 0.00 0.00 0.00 59
20260904235724 77 265 3.5 11.3 0.00 0.00 0.00 58
20260904235524 77 258 10.4 11.3 0.00 0.00 0.00 56
20260904235322 77 272 3.5 11.3 0.00 0.00 0.00 58
20260904235118 77 250 11.3 9.6 0.00 0.00 0.00 57
20260904234916 77 302 5.2 9.6 0.00 0.00 0.00 57
20260904234514 78 250 8.7 11.3 0.00 0.00 0.00 57
20260904234312 77 250 0.9 11.3 0.00 0.00 0.00 56
20260904234110 77 261 6.1 11.3 0.00 0.00 0.00 57
20260904233907 77 265 7.0 11.3 0.00 0.00 0.00 57
20260904233505 77 225 7.0 9.6 0.00 0.00 0.00 56
20260904233342 78 271 4.3 9.6 0.00 0.00 0.00 55
20260904233302 78 271 4.3 9.6 0.00 0.00 0.00 55
20260904233100 77 253 6.1 13.0 0.00 0.00 0.00 56
20260904232858 77 161 0.9 13.0 0.00 0.00 0.00 56
20260904232655 78 262 8.7 11.3 0.00 0.00 0.00 55
20260904232454 78 275 3.5 11.3 0.00 0.00 0.00 54
20260904232050 78 270 5.2 11.3 0.00 0.00 0.00 54
20260904231847 78 260 7.0 11.3 0.00 0.00 0.00 51
20260904231645 78 281 3.5 15.6 0.00 0.00 0.00 54
20260904231445 78 260 4.3 15.6 0.00 0.00 0.00 53
20260904231243 77 255 4.3 13.9 0.00 0.00 0.00 54
20260904231041 77 300 7.0 13.9 0.00 0.00 0.00 54
20260904230837 77 255 6.1 13.9 0.00 0.00 0.00 54
20260904230635 78 253 13.0 13.9 0.00 0.00 0.00 54
20260904230435 78 288 4.3 13.9 0.00 0.00 0.00 52
20260904230233 78 255 6.1 13.0 0.00 0.00 0.00 53
20260904230029 78 262 8.7 13.0 0.00 0.00 0.00 54
20260904225829 77 268 10.4 13.0 0.00 0.00 0.00 53
20260904225625 78 239 8.7 13.9 0.00 0.00 0.00 54
20260904225425 78 277 7.0 13.9 0.00 0.00 0.00 53
20260904225021 78 246 7.0 13.9 0.00 0.00 0.00 54
20260904224819 78 265 7.8 13.9 0.00 0.00 0.00 54
20260904224615 77 248 7.0 15.6 0.00 0.00 0.00 53
20260904224415 77 255 9.6 15.6 0.00 0.00 0.00 55
20260904224213 77 265 7.8 16.5 0.00 0.00 0.00 56
20260904224009 77 257 11.3 16.5 0.00 0.00 0.00 57
20260904223809 77 282 8.7 16.5 0.00 0.00 0.00 56
20260904223607 77 253 9.6 15.6 0.00 0.00 0.00 55
20260904223404 77 274 12.2 15.6 0.00 0.00 0.00 56
20260904223204 77 241 9.6 16.5 0.00 0.00 0.00 56
20260904223000 77 254 8.7 16.5 0.00 0.00 0.00 57
20260904222800 77 275 13.0 16.5 0.00 0.00 0.00 57
20260904222556 77 262 15.6 13.0 0.00 0.00 0.00 57
20260904222355 77 296 9.6 13.0 0.00 0.00 0.00 56
20260904222153 78 267 9.6 14.8 0.00 0.00 0.00 54
20260904221952 78 293 3.5 14.8 0.00 0.00 0.00 55
20260904221750 78 260 6.1 14.8 0.00 0.00 0.00 55
20260904221548 78 267 8.7 13.0 0.00 0.00 0.00 56
20260904221346 79 270 8.7 13.0 0.00 0.00 0.00 55
20260904221144 79 253 11.3 14.8 0.00 0.00 0.00 54
20260904220941 79 232 8.7 14.8 0.00 0.00 0.00 55
20260904220740 79 277 10.4 12.2 0.00 0.00 0.00 55
20260904220538 78 244 9.6 12.2 0.00 0.00 0.00 55
20260904220334 79 272 9.6 12.2 0.00 0.00 0.00 55
20260904220132 79 258 9.6 15.6 0.00 0.00 0.00 55
20260904215124 78 262 11.3 13.9 0.00 0.00 0.00 55
20260904214922 79 264 7.8 13.9 0.00 0.00 0.00 55
20260904214719 79 247 8.7 14.8 0.00 0.00 0.00 54
20260904214517 80 268 8.7 14.8 0.00 0.00 0.00 53
20260904214316 80 246 7.8 14.8 0.00 0.00 0.00 53
20260904214113 80 272 9.6 13.9 0.00 0.00 0.00 53
20260904213912 80 250 8.7 13.9 0.00 0.00 0.00 53
20260904213710 80 260 9.6 14.8 0.00 0.00 0.00 52
20260904213306 80 241 7.0 14.8 0.00 0.00 0.00 52
20260904213104 80 247 9.6 13.9 0.00 0.00 0.00 51
20260904212902 80 254 7.8 13.9 0.00 0.00 0.00 51
20260904212701 80 240 7.8 13.0 0.00 0.00 0.00 51
20260904212458 80 262 8.7 13.0 0.00 0.00 0.00 49
20260904212257 81 272 2.6 13.0 0.00 0.00 0.00 49
20260904211852 81 274 6.1 13.9 0.00 0.00 0.00 50
20260904211651 81 262 12.2 11.3 0.00 0.00 0.00 49
20260904211449 81 279 6.1 11.3 0.00 0.00 0.00 49
20260904211247 81 261 13.9 11.3 0.00 0.00 0.00 48
20260904211045 81 268 5.2 14.8 0.00 0.00 0.00 47
20260904210843 81 157 0.9 14.8 0.00 0.00 0.00 48
20260904210237 81 271 9.6 13.9 0.00 0.00 0.00 48
20260904210035 82 234 8.7 13.9 0.00 0.00 0.00 46
20260904205834 82 268 6.1 13.9 0.00 0.00 0.00 46
20260904205429 82 262 6.1 13.9 0.00 0.00 0.00 45
20260904205227 81 271 3.5 14.8 0.00 0.00 0.00 45
20260904205025 81 247 5.2 14.8 0.00 0.00 0.00 46
20260904204824 81 271 7.8 14.8 0.00 0.00 0.00 44
20260904204622 81 254 6.1 13.0 0.00 0.00 0.00 45
20260904204420 81 272 5.2 13.0 0.00 0.00 0.00 45
20260904204217 81 286 5.2 10.4 0.00 0.00 0.00 45
20260904204016 81 244 1.7 10.4 0.00 0.00 0.00 45
20260904203814 81 279 5.2 10.4 0.00 0.00 0.00 44
20260904203612 81 268 7.0 12.2 0.00 0.00 0.00 45
20260904203410 81 300 6.1 12.2 0.00 0.00 0.00 44
20260904203208 81 261 8.7 12.2 0.00 0.00 0.00 43
20260904202804 82 261 8.7 12.2 0.00 0.00 0.00 41
20260904202602 81 285 1.7 11.3 0.00 0.00 0.00 43
20260904202400 81 272 8.7 11.3 0.00 0.00 0.00 43
20260904202158 81 277 7.8 13.0 0.00 0.00 0.00 43
20260904201956 81 277 6.1 13.0 0.00 0.00 0.00 43
20260904201754 81 240 6.1 13.0 0.00 0.00 0.00 43
20260904201553 80 271 8.7 11.3 0.00 0.00 0.00 44
20260904201350 81 289 3.5 11.3 0.00 0.00 0.00 44
20260904201148 80 291 4.3 11.3 0.00 0.00 0.00 44
20260904200946 81 277 7.8 11.3 0.00 0.00 0.00 44
20260904200745 81 285 6.1 11.3 0.00 0.00 0.00 43
20260904200542 81 278 7.0 11.3 0.00 0.00 0.00 43
20260904200339 81 251 6.1 11.3 0.00 0.00 0.00 42
20260904200137 81 291 3.5 7.8 0.00 0.00 0.00 42
20260904195531 82 281 4.3 8.7 0.00 0.00 0.00 40
20260904195329 83 258 4.3 8.7 0.00 0.00 0.00 40
20260904195127 83 320 0.9 4.3 0.00 0.00 0.00 39
20260904194927 83 146 0.0 4.3 0.00 0.00 0.00 39
20260904194725 82 52 0.0 5.2 0.00 0.00 0.00 41
20260904194521 82 171 0.0 5.2 0.00 0.00 0.00 40
20260904194321 82 260 0.9 5.2 0.00 0.00 0.00 39
20260904194119 82 213 2.6 7.0 0.00 0.00 0.00 40
20260904193916 82 156 0.9 7.0 0.00 0.00 0.00 40
20260904193716 82 226 2.6 6.1 0.00 0.00 0.00 41
20260904193513 81 174 0.9 6.1 0.00 0.00 0.00 41
20260904193110 81 205 1.7 4.3 0.00 0.00 0.00 41
20260904192905 81 309 0.0 4.3 0.00 0.00 0.00 41
20260904192705 81 275 3.5 5.2 0.00 0.00 0.00 40
20260904192504 82 306 0.0 5.2 0.00 0.00 0.00 39
20260904192300 82 285 3.5 5.2 0.00 0.00 0.00 39
20260904192058 82 106 0.0 3.5 0.00 0.00 0.00 40
20260904191856 82 284 0.0 3.5 0.00 0.00 0.00 40
20260904191654 82 284 0.0 6.1 0.00 0.00 0.00 41
20260904191453 82 119 0.0 6.1 0.00 0.00 0.00 41
20260904191252 82 143 3.5 6.1 0.00 0.00 0.00 40
20260904191049 82 161 2.6 5.2 0.00 0.00 0.00 40
20260904190847 82 199 4.3 5.2 0.00 0.00 0.00 39
20260904190646 82 156 1.7 2.6 0.00 0.00 0.00 41
20260904190240 81 278 0.0 3.5 0.00 0.00 0.00 43
20260904190040 80 278 0.0 3.5 0.00 0.00 0.00 44
20260904185838 80 59 0.0 3.5 0.00 0.00 0.00 45
20260904185634 79 257 0.9 4.3 0.00 0.00 0.00 46
20260904185432 79 250 0.0 4.3 0.00 0.00 0.00 47
20260904185230 78 195 0.0 7.0 0.00 0.00 0.00 47
20260904185028 78 324 0.0 7.0 0.00 0.00 0.00 48
20260904184828 77 305 1.7 7.0 0.00 0.00 0.00 48
20260904184624 77 261 4.3 4.3 0.00 0.00 0.00 48
20260904184422 77 285 1.7 4.3 0.00 0.00 0.00 49
20260904184222 77 295 0.9 7.0 0.00 0.00 0.00 49
20260904184020 77 257 1.7 7.0 0.00 0.00 0.00 50
20260904183816 77 257 1.7 7.0 0.00 0.00 0.00 49
20260904183614 77 288 3.5 6.1 0.00 0.00 0.00 49
20260904183412 77 316 4.3 6.1 0.00 0.00 0.00 49
20260904183210 77 315 0.9 9.6 0.00 0.00 0.00 49
20260904183010 77 232 1.7 9.6 0.00 0.00 0.00 49
20260904182806 77 233 3.5 9.6 0.00 0.00 0.00 50
20260904182604 77 275 7.0 7.0 0.00 0.00 0.00 52
20260904182403 76 292 0.0 7.0 0.00 0.00 0.00 52
20260904182203 76 324 0.0 6.1 0.00 0.00 0.00 52
20260904182000 76 317 4.3 6.1 0.00 0.00 0.00 52
20260904181759 76 285 4.3 6.1 0.00 0.00 0.00 51
20260904181555 76 320 0.0 7.0 0.00 0.00 0.00 52
20260904181354 76 277 0.9 7.0 0.00 0.00 0.00 52
20260904181151 76 264 3.5 8.7 0.00 0.00 0.00 53
20260904180949 75 286 2.6 8.7 0.00 0.00 0.00 53
20260904180747 75 262 0.0 8.7 0.00 0.00 0.00 54
20260904180545 75 309 2.6 6.1 0.00 0.00 0.00 54
20260904180343 75 277 7.8 6.1 0.00 0.00 0.00 53
20260904180142 75 279 1.7 7.8 0.00 0.00 0.00 54
20260904175939 75 282 4.3 7.8 0.00 0.00 0.00 54
20260904175737 75 268 4.3 7.0 0.00 0.00 0.00 54
20260904175537 76 260 6.1 7.0 0.00 0.00 0.00 54
20260904175335 75 277 4.3 7.0 0.00 0.00 0.00 52
20260904175132 77 265 6.1 4.3 0.00 0.00 0.00 51
20260904174931 77 277 3.5 4.3 0.00 0.00 0.00 52
20260904174729 77 132 0.9 1.7 0.00 0.00 0.00 53
20260904174527 76 46 0.0 1.7 0.00 0.00 0.00 53
20260904174325 76 87 1.7 1.7 0.00 0.00 0.00 54
20260904174123 75 102 0.0 2.6 0.00 0.00 0.00 56
20260904173919 75 239 0.0 2.6 0.00 0.00 0.00 56
20260904173717 75 239 0.0 4.3 0.00 0.00 0.00 56
20260904173517 75 270 0.0 4.3 0.00 0.00 0.00 55
20260904173313 75 295 0.9 4.3 0.00 0.00 0.00 53
20260904173111 75 299 3.5 5.2 0.00 0.00 0.00 52
20260904172909 75 303 1.7 5.2 0.00 0.00 0.00 52
20260904172707 76 309 0.0 6.1 0.00 0.00 0.00 51
20260904172506 75 309 0.0 6.1 0.00 0.00 0.00 52
20260904172305 75 87 3.5 6.1 0.00 0.00 0.00 54
20260904172102 75 135 1.7 5.2 0.00 0.00 0.00 55
20260904171900 75 147 1.7 5.2 0.00 0.00 0.00 55
20260904171658 75 216 1.7 5.2 0.00 0.00 0.00 55